Regional Weather Roundup
Issued by NWS Upton, NY

Current Version | Previous Version | Text Only | Print | Product List | Glossary On
Versions: 1 2 3 4 5 6 7 8 9 10 11 12 13 14 15 16 17 18 19 20 21 22 23 24 25 26 27 28 29 30 31 32 33 34 35 36 37 38 39 40 41 42 43 44 45 46 47 48 49 50
000 ASUS41 KOKX 171705 RWROKX REGIONAL WEATHER ROUNDUP NATIONAL WEATHER SERVICE NEW YORK NY 100 PM EDT WED SEP 17 2014 NOTE: "FAIR" INDICATES FEW OR NO CLOUDS BELOW 12,000 FEET WITH NO SIGNIFICANT WEATHER AND/OR OBSTRUCTIONS TO VISIBILITY. NYZ071-072-176-178-NJZ106-104-171800- NEW YORK CITY METRO AREA CITY SKY/WX TMP DP RH WIND PRES REMARKS CENTRAL PARK SUNNY 70 40 33 W7 30.05F LAGUARDIA APRT MOSUNNY 69 40 34 NW5 30.02F KENNEDY INTL MOSUNNY 73 40 30 W8G26 30.03F NEWARK/LIBERTY MOSUNNY 72 42 34 VRB6 30.02F BRNX BOT. GARD N/A 68 39 34 SW5 30.02F TETERBORO SUNNY 70 41 34 VRB5 30.01F $$ NYZ177-179-078>081-171800- LONG ISLAND NEW YORK CITY SKY/WX TMP DP RH WIND PRES REMARKS FARMINGDALE SUNNY 71 44 37 VRB5 30.02F ISLIP NOT AVBL SHIRLEY NOT AVBL WESTHAMPTON SUNNY 70 43 37 N7 30.02F MONTAUK POINT N/A 68 41 37 N7 30.02F $$ NYZ052-065-067-171800- HUDSON VALLEY CITY SKY/WX TMP DP RH WIND PRES REMARKS WHITE PLAINS NOT AVBL NEWBURGH MOSUNNY 64 46 52 NW7 30.04F MONTGOMERY NOT AVBL POUGHKEEPSIE MOSUNNY 66 43 43 S3 30.01F ALBANY PTSUNNY 63 45 51 NW5 30.02F $$ NJZ001-105-106-008-010-013-015-019>022-104-171800- NEW JERSEY CITY SKY/WX TMP DP RH WIND PRES REMARKS NEWARK/LIBERTY MOSUNNY 72 42 34 VRB6 30.02F TETERBORO SUNNY 70 41 34 VRB5 30.01F CALDWELL MOSUNNY 69 41 36 CALM 30.03F MORRISTOWN NOT AVBL SOMERVILLE MOSUNNY 71 44 37 VRB6 30.01F LINDEN FAIR 74 44 33 N5 30.04F SUSSEX SUNNY 69 43 38 VRB3 30.03F ANDOVER N/A 66 42 41 CALM 30.04F TRENTON PTSUNNY 68 44 42 NW8 30.02F MILLVILLE NOT AVBL ATLANTIC CITY PTSUNNY 72 47 40 CALM 30.02F WRIGHTSTOWN MOSUNNY 70 48 45 VRB5 30.00F TOMS RIVER PTSUNNY 70 48 46 CALM 30.03F BELMAR MOSUNNY 70 46 43 CALM 30.03F $$ PAZ047>061-062-071-171800- EASTERN PENNSYLVANIA CITY SKY/WX TMP DP RH WIND PRES REMARKS PHILADELPHIA NOT AVBL ALLENTOWN MOSUNNY 70 45 40 CALM 30.03F SCRANTON NOT AVBL $$ CTZ002-004>006-009-010-012-RIZ004-006-007-MAZ004-011-015-171800- SOUTHERN NEW ENGLAND IN CT CITY SKY/WX TMP DP RH WIND PRES REMARKS BRADLEY INTL MOSUNNY 69 43 38 W7 30.00F HARTFORD NOT AVBL DANBURY SUNNY 66 44 45 NW8 30.04F WTRBRY/OXFORD PTSUNNY 63 45 51 VRB5 30.03F BRIDGEPORT SUNNY 68 44 42 CALM 30.01F MERIDEN NOT AVBL NEW HAVEN MOSUNNY 70 43 37 VRB6 30.01F CHESTER FAIR 66 39 37 NW6 30.03S GROTON NOT AVBL WILLIMANTIC SUNNY 68 39 34 W7G17 30.01F IN RI CITY SKY/WX TMP DP RH WIND PRES REMARKS PROVIDENCE MOSUNNY 71 42 35 NW7 29.99F BLOCK ISLAND SUNNY 66 43 42 NW5 30.01F WESTERLY NOT AVBL IN MA CITY SKY/WX TMP DP RH WIND PRES REMARKS BOSTON NOT AVBL WORCESTER NOT AVBL WESTFIELD PTSUNNY 67 42 40 NW8 30.00F PROVINCETOWN SUNNY 66 55 68 NW3 30.00F NANTUCKET MOSUNNY 69 55 60 S15 29.99F $$ ANZ330-335-338-340-345-350-353-355-171800- COASTAL MARINE OBSERVATIONS STATION/POSITION TIME SKY/WX TEMP WIND PRES VSBY WAVE AIR SEA DIR/SP/G HT/PER (UTC) (F) (DEG/KT/KT) (MB) (MI) (FT/S) NY HARB ENTRANCE NOT AVBL 4S FIRE IS NOT AVBL 23SW MTP 1700 N/A 3/13 HUDSON CANYON 1700 66 74 30/ 8/ 10 1016.3 4/15 EXECUTION ROCKS 1700 66 71 140/ 4/ 6 N/A WESTERN LI SOUND 1700 65 170/ 2/ 6 N/A 0 CENTRAL LI SOUND 1600 65 71 340/ 2/ 4 N/A 1 EASTERN LI SOUND 1600 67 69 210/ 4/ 6 N/A ROBBINS REEF 1600 66 330/ 8/ 12 1015.6 $$ >>>>>>>>>>>>>>>>>>>>>>>>>>>> KEY <<<<<<<<<<<<<<<<<<<<<<<<<<< > < > SKY/WX - SKY CONDITION/PRESENT WEATHER < > TMP - TEMPERATURE IN FAHRENHEIT < > DP - DEWPOINT IN FAHRENHEIT < > RH - RELATIVE HUMIDITY IN PERCENT < > WIND - DIRECTION AND SPEED IN MPH < > PRES - MEAN SEA LEVEL PRESSURE IN INCHES OF HG < > WCI - WIND CHILL INDEX < > VSB - VISIBILITY IN MILES < > HX - HEAT INDEX < > TC - TEMPERATURE IN CELSIUS < > VRB - VARIABLE WIND DIRECTION < > < >>>>>>>>>>>>>>>>>>>>>>>>>>>> KEY <<<<<<<<<<<<<<<<<<<<<<<<<<<

USA.gov is the U.S. government's official web portal to all federal, state and local government web resources and services.